Location: Cassano d�Adda
(45.5333°N, 9.5167°E)
Time: 19:19:17
(UTC+00:00)

SL-4 R/B - Pass Details

Date: 08 December 2019
Orbit: 428 x 667 km, 51.6° (Epoch: 26 January)

Event Time Altitude Azimuth Distance (km) Brightness Sun altitude
Rises 17:18:25 0° 264° (W) 2,515 7.1 -16.8°
Reaches altitude 10° 17:20:34 10° 272° (W) 1,674 5.6 -17.2°
Maximum altitude 17:24:12 43° 345° (NNW) 731 2.6 -17.8°
Enters shadow 17:25:26 33° 30° (NNE) 906 2.7 -18.0°
